Nogales, AZ

2:12 PM MST on July 27, 2017 (GMT -0700)
Nogales International

Weather History for KOLS - August, 2013

Change the Weather History Date:

Wednesday, August 7, 2013

  Actual Average (KFHU) Record (KFHU)
Temperature  
Mean Temperature 74 °F -  
Max Temperature 87 °F 87 °F 98 °F (2003)
Min Temperature 61 °F 68 °F 60 °F (2013)
Cooling Degree Days 9    
Growing Degree Days 24 (Base 50)    
Moisture  
Dew Point 57 °F    
Average Humidity 60    
Maximum Humidity 90    
Minimum Humidity 31    
Precipitation  
Precipitation 0.00 in - - ()
Sea Level Pressure  
Sea Level Pressure 29.95 in    
Wind  
Wind Speed 3 mph (North)    
Max Wind Speed 8 mph    
Max Gust Speed -    
Visibility 10 miles    
Events      
Averages and records for this station are not official NWS values.
T = Trace of Precipitation, MM = Missing Value Source: NWS Daily Summary

Daily Weather History Graph

Daily Weather History Graph

Search for Another Location

Airport or City:

Trip Planner

Search our weather history database for the weather conditions in past years. The results will help you decide how hot, cold, wet, or windy it might be!

Date:

Astronomy

Aug. 07, 2013 Rise Set
Actual Time 5:43 AM MST 7:13 PM MST
Civil Twilight 5:17 AM MST 7:39 PM MST
Nautical Twilight 4:46 AM MST 8:10 PM MST
Astronomical Twilight 4:14 AM MST 8:43 PM MST
Moon 6:28 AM MST (8/7) 7:32 PM MST (8/7)
Length of Visible Light 14h 22m
Length of Day
13h 30m
New Moon, 1% of the Moon is Illuminated
Aug 7
New Moon
Aug 14
First Quarter
Aug 20
Full
Aug 28
Last Quarter
Sep 5
New

Hourly Weather History & Observations

Time (MST) Temp. Heat Index Dew Point Humidity Pressure Visibility Wind Dir Wind Speed Gust Speed Precip Events Conditions
12:54 AM 63.0 °F - 60.1 °F 90% 29.98 in 10.0 mi East 3.5 mph - N/A   Clear
1:54 AM 62.1 °F - 59.0 °F 90% 29.98 in 10.0 mi Calm Calm - N/A   Clear
2:54 AM 62.1 °F - 59.0 °F 90% 29.96 in 10.0 mi East 3.5 mph - N/A   Clear
3:54 AM 61.0 °F - 57.9 °F 90% 29.96 in 10.0 mi Calm Calm - N/A   Clear
4:54 AM 61.0 °F - 57.9 °F 90% 29.97 in 10.0 mi Calm Calm - N/A   Clear
5:54 AM 61.0 °F - 57.9 °F 90% 29.98 in 10.0 mi Calm Calm - N/A   Partly Cloudy
6:54 AM 64.0 °F - 60.1 °F 87% 29.99 in 10.0 mi Calm Calm - N/A   Clear
7:54 AM 70.0 °F - 60.1 °F 71% 30.00 in 10.0 mi Calm Calm - N/A   Partly Cloudy
8:54 AM 73.9 °F - 60.1 °F 62% 29.99 in 10.0 mi Calm Calm - N/A   Clear
9:54 AM 77.0 °F - 59.0 °F 54% 29.99 in 10.0 mi Calm Calm - N/A   Clear
10:54 AM 80.1 °F 80.7 °F 59.0 °F 48% 29.99 in 10.0 mi West 5.8 mph - N/A   Clear
11:54 AM 82.0 °F 81.6 °F 55.9 °F 41% 29.98 in 10.0 mi West 6.9 mph - N/A   Clear
12:54 PM 84.9 °F 83.7 °F 55.9 °F 37% 29.96 in 10.0 mi NW 8.1 mph - N/A   Clear
1:54 PM 86.0 °F 84.9 °F 57.0 °F 37% 29.94 in 10.0 mi WNW 8.1 mph - N/A   Clear
2:54 PM 87.1 °F 85.3 °F 55.0 °F 33% 29.92 in 10.0 mi NNW 4.6 mph - N/A   Clear
3:54 PM 87.1 °F 85.1 °F 54.0 °F 32% 29.91 in 10.0 mi NW 8.1 mph - N/A   Clear
4:54 PM 87.1 °F 84.9 °F 53.1 °F 31% 29.89 in 10.0 mi NW 6.9 mph - N/A   Clear
5:54 PM 86.0 °F 84.0 °F 53.1 °F 32% 29.88 in 10.0 mi NW 8.1 mph - N/A   Clear
6:54 PM 82.0 °F 81.3 °F 54.0 °F 38% 29.90 in 10.0 mi North 5.8 mph - N/A   Clear
7:54 PM 75.0 °F - 57.0 °F 53% 29.90 in 10.0 mi East 5.8 mph - N/A   Clear
8:54 PM 73.9 °F - 54.0 °F 50% 29.91 in 10.0 mi East 8.1 mph - N/A   Clear
9:54 PM 72.0 °F - 54.0 °F 53% 29.91 in 10.0 mi North 3.5 mph - N/A   Clear
10:54 PM 68.0 °F - 55.0 °F 63% 29.91 in 10.0 mi NE 3.5 mph - N/A   Clear
11:54 PM 66.0 °F - 55.9 °F 70% 29.92 in 10.0 mi NE 5.8 mph - N/A   Clear